sat.trackr.live / text

‹ back to catalog

STARLINK-32283

NORAD 62425 · 2024-249S

PAYLOAD ACTIVE UNKNOWN

§ Identity

Operator
Country
US
Launch date
2024-12-23
Launch site
AFETR
Launch vehicle
Mass (kg)
RCS (m²)

Purposes: comms

External: N2YO · Heavens-Above · Gunter

§ Orbital elements

Epoch: 2026-09-21T18:37:52.413312Z

Period
94.27 min
Inclination
43.0030°
Eccentricity
0.0001890
Mean motion
15.27597734 rev/d
Perigee alt
481.7 km
Apogee alt
484.3 km
Semi-major
6,861.1 km
B*
6.5038e-4
RAAN
283.1201°
Arg perigee
270.8231°
Mean anomaly
89.2404°
Rev number
9,784

§ Raw data

STARLINK-322831 62425U 24249S   26264.77630108  .00017688  00000+0  65038-3 0  99962 62425  43.0030 283.1201 0001890 270.8231  89.2404 15.27597734 97844

JSON: /api/v1/satellites/62425 · /tle

For live sub-satellite position, see the globe view (requires WebGL).

§ Visibility from observer

Set your observer location to see the next 7 days of passes ≥ 10°. The values pass through the URL so the page stays shareable.

No JS? Fill the form by hand. The geolocation button needs JavaScript.